www.pogodaiklimat.ru

Погода и климат >> Архив погоды >> Россия >> Алтай >> Кызыл-Озек


АРХИВ ПОГОДЫ в Кызыл-Озеке

Время (UTC), дата Ветер
(напр.,м/с)
 
Видим.   Явления Облачность Т
(С)
Тd
(С)
f
(%)
Тe
(С)
Тes
(С)
Комфортность P
(гПа)
Po
(гПа)
Тmin
(С)
Tmax
(С)
R
(мм)
R24
(мм)
S
(см)
21 9.01 штиль 0 50 км 10/10 1000 м
[Sc]
-5.4 -8.9 76 -6 -6 1020.5 979.4
00 10.01 СЗ 2 50 км 10/10 1000 м
[Sc]
-4.6 -6.5 87 -9 -9 1021.1 980.1 -6.9 32
03 10.01 СЗ 3 10 км слаб. ливневой снег 10/10 600 м
[Cb cap]
-7.0 -9.0 86 -13 -13 1022.3 980.9 -7.0
06 10.01 СЗ 2 10 км слаб. ливневой снег 10/10 600 м
[Cb cap]
-7.7 -10.6 80 -12 -12 1022.5 980.9
09 10.01 С 3 10 км слаб. ливневой снег 10/10 600 м
[Cb cap]
-9.4 -12.6 77 -15 -15 1023.5 981.6
12 10.01 штиль 0 2000 м слаб. ливневой снег 10/10 600 м
[Cb cap]
-9.9 -12.3 83 -10 -10 1024.7 982.7 -4.6 2
15 10.01 С 2 2000 м слаб. ливневой снег 10/10 600 м
[Cb cap]
-11.2 -14.5 77 -16 -16 1026.6 984.3
18 10.01 С 1 2000 м слаб. ливневой снег 10/10 600 м
[Cb cap]
-12.3 -15.7 76 -15 -15 1028.3 985.8
21 10.01 С 1 2000 м слаб. ливневой снег 10/10 600 м
[Cb cap]
-12.9 -16.7 73 -15 -15 1029.7 987.0
00 11.01 штиль 0 50 км {ливн. осадки} 10/10 1000 м
[Sc]
-14.9 -17.9 78 -15 -15 1031.5 988.4 -14.9 2 36
03 11.01 штиль 0 50 км {ливн. осадки} 10/0
[Ci fib]
-18.1 -21.2 77 -18 -18 1033.3 989.6 -18.1
06 11.01 штиль 0 50 км {ливн. осадки} 4/0
[Cc]
-14.4 -20.0 62 -14 -12 1031.6 988.6
09 11.01 СЗ 2 50 км 10/0
[Ci sp]
-13.3 -18.0 68 -18 -18 1030.4 987.6
12 11.01 штиль 0 50 км 10/8 1000 м
[Sc Ci sp]
-18.5 -21.6 77 -19 -19 1031.3 987.6 -10.4 0.0
15 11.01 ЮВ 1 50 км 10/4 1000 м
[Sc Ci sp]
-20.2 -23.3 76 -23 -23 1030.3 986.3
18 11.01 Ю 1 50 км 10/9 1000 м
[Sc Ci sp]
-18.7 -22.2 74 -22 -22 1029.9 986.2
21 11.01 Ю 1 50 км 10/10 1000 м
[Sc]
-16.4 -19.9 74 -19 -19 1029.0 985.8
00 12.01 штиль 0 50 км 10/10 1000 м
[Sc]
-15.3 -18.7 75 -15 -15 1029.0 985.9 -20.6 36
03 12.01 штиль 0 4000 м слаб. ливневой снег 10/10 600 м
[Cb cap]
-14.3 -17.3 78 -14 -14 1030.8 987.8
06 12.01 СЗ 2 2000 м слаб. ливневой снег 10/10 600 м
[Cb cap]
-11.3 -14.6 77 -16 -16 1031.4 988.9
09 12.01 С 3 2000 м слаб. ливневой снег 10/10 600 м
[Cb cap]
-10.5 -14.6 72 -16 -16 1034.5 992.0
12 12.01 штиль 0 50 км {ливн. осадки} 10/8 1000 м
[Sc diur, vesp Ac cuf]
-11.6 -15.1 75 -12 -12 1037.3 994.5 -10.1 1
15 12.01 штиль 0 2000 м слаб. ливневой снег 10/10 600 м
[Cb cap]
-11.7 -14.3 81 -12 -12 1039.2 996.3
18 12.01 Ю 1 50 км в посл. час ливневой снег 10/3 1000 м
[Sc diur, vesp Ac cuf Ci sp]
-12.9 -15.4 81 -15 -15 1040.2 997.1
21 12.01 штиль 0 2000 м слаб. ливневой снег 10/10 600 м
[Cb cap]
-12.6 -15.2 81 -13 -13 1040.9 997.8
00 13.01 штиль 0 2000 м слаб. ливневой снег 10/10 600 м
[Cb cap]
-12.7 -15.3 81 -13 -13 1041.5 998.4 -13.1 1 39
03 13.01 Ю 1 50 км {ливн. осадки} 10/3 1000 м
[Sc diur, vesp Ac trans Ci fib]
-12.8 -15.4 81 -15 -15 1041.3 998.2
06 13.01 штиль 0 50 км {ливн. осадки} 10/0
[Ci fib]
-8.4 -13.9 64 -9 -7 1040.7 998.3
09 13.01 штиль 0 50 км 10/0
[Ci fib]
-7.3 -12.7 65 -8 -7 1039.9 997.6
12 13.01 Ю 2 50 км 10/0
[Ci fib]
-12.9 -15.2 83 -18 -18 1041.6 998.4 -4.6 0.2
15 13.01 Ю 2 50 км ясно -14.6 -17.0 82 -20 -20 1041.8 998.4
18 13.01 ЮВ 1 50 км ясно -16.1 -18.7 80 -19 -19 1041.5 997.7
21 13.01 ЮВ 1 50 км ясно -16.8 -19.5 80 -20 -20 1040.9 997.1
00 14.01 Ю 2 50 км ясно -16.2 -18.9 80 -21 -21 1039.7 996.0 -17.2 38
03 14.01 Ю 2 50 км ясно -16.1 -18.9 79 -21 -21 1039.0 995.4
06 14.01 Ю 2 50 км ясно -6.7 -12.2 65 -11 -9 1035.0 993.1
12 14.01 Ю 2 50 км ясно -10.1 -12.9 80 -15 -15 1032.3 989.9 -0.5

 

Местоположение метеостанции Кызыл-Озек (Алтай, Россия): широта 51.90 долгота 86.00 высота над уровнем моря 326 м.

В архиве по умолчанию представлена погода в Кызыл-Озеке за последнюю неделю. Архивные данные за месяц целиком и за предыдущие месяцы, начиная с января 2011 года, Вы можете получить, выбрав интересующий диапазон дат из раскрывающегося списка и нажав кнопку "Ввод!".


*Определитесь, кто Вы:
робот инопланетянин человек

Внимание! Время в таблицах - всемирное. Для получения местного времени необходимо прибавить поправку, которая равна 7 ч.

Смотрите также архив погоды в соседних городах и на ближайших метеорологических станциях:

Погода в Горно-Алтайске (Алтай, Россия) (14 км)
Погода в Чое (Алтай, Россия) (38 км)
Погода в Чемале (Алтай, Россия) (58 км)
Погода в Шебалино (Алтай, Россия) (70 км)
Погода в Белокурихе (Алтайский край, Россия) (71 км)
Погода в Турочаке (Алтай, Россия) (87 км)
Погода в Бийске АМС (Алтайский край, Россия) (90 км)
Погода в Яйлю (Алтай, Россия) (111 км)
Погода в Бийске (Алтайский край, Россия) (113 км)
Погода в Солонешном (Алтайский край, Россия) (119 км)

Пояснения к столбцам:

Ветер - указаны скорость ветра в м/с - средняя за 10 мин, порывы в срок и между сроками (в фигурных скобках) и направление, откуда дует ветер: С - северный, СВ - северо-восточный, В - восточный, ЮВ - юго-восточный, Ю - южный, ЮЗ - юго-западный, З - западный, СЗ - северо-западный.
Видимость - горизонтальная дальность видимости в метрах или километрах. При видимости от 1 до 10 км при отсутствии осадков обычно наблюдается дымка, при ухудшении видимости до 1 км и менее - туман. В сухую погоду видимость может ухудшаться дымом, пылью или мглою.
Явления - указаны атмосферные явления, наблюдавшиеся в срок или в последний час перед сроком; фигурными скобками обозначены явления, наблюдавшиеся между сроками (за 1-3 часа до срока); квадратными скобками обозначены град или гололедные отложения с указанием их диаметра в мм.
Облачность - указаны через наклонную черту общая и нижняя облачность в баллах и высота нижней границы облаков в метрах; квадратными скобками обозначены формы облаков: Ci - перистые, Cs - перисто-слоистые, Cc - перисто-кучевые, Ac - высококучевые, As - высокослоистые, Sc - слоисто-кучевые, Ns - слоисто-дождевые, Cu - кучевые, Cb - кучево-дождевые. Подробнее классификацию облаков см. в Атласе облаков (PDF).
T - Температура воздуха - температура, измеренная на высоте 2 м над землей.
Td - Температура точки росы - температура, при понижении до которой содержащийся в воздухе водяной пар достигнет насыщения.
f - Относительная влажность воздуха - влажноcть воздуха, измеренная на высоте 2 м над землей.
Te - Эффективная температура - температура, которую ощущает одетый по сезону человек в тени. Характеристика душности погоды. При расчете учитывается влияние влажности воздуха и скорости ветра на теплоощущения человека.
Tes - Эффективная температура на солнце - температура, которую ощущает человек, с поправкой на солнечный нагрев. Характеристика знойности погоды. Зависит от высоты солнца над горизонтом, облачности и скорости ветра. Ночью, в пасмурную погоду, а также при ветре 12 м/с и более поправка равна нулю.
P - Атмосферное давление - приведенное к уровню моря атмосферное давление.
Po - Атмосферное давление - измеренное на уровне метеостанции атмосферное давление.
Tmin - Минимальная температура - минимум температуры воздуха на высоте 2 м над землей.
Tmax - Максимальная температура - максимум температуры воздуха на высоте 2 м над землей.
R - Количество осадков - Количество выпавших осадков за период времени, мм. При наведении курсора мыши на число - период времени, за который выпало указанное количество осадков.
R24 - Количество осадков - Количество выпавших осадков за 24 часа, мм.
S - Снежный покров - Высота снежного покрова, см. При наведении курсора мыши на число - состояние снежного покрова и степень покрытия местности в баллах.